map of OKA home
OKA - Airport
Location
City:  Okinawa, Ryukyu Island, Okinawa, Japan
Name:Naha Airport / Naha AB
ICAO:ROAH
IATA:OKA

Details
Type:Airport (Aerodrome, Airfield)
Use:Public/Civil, Military, International (customs port of entry)
Latitude:2611'45"N (26.195814)
Longitude:12738'45"E (127.645869)
Datum:WGS 1984
Elevation:12 ft (4 m)
Variation:5.25W (WMM2015 magnetic declination)
-0.09 annual change
Runways:1
Longest:9840 × 150 ft (2999 × 45.5 m), paved

Time
Time Zone:UTC+9
Local Time:

Weather
METAR:ROAH 230030Z 04012KT 9999 FEW020 SCT038 BKN045 17/11 Q1020 RMK 1CU020 3SC038 7SC045 A3014
TAF:ROAH 222305Z 2300/2406 03010KT 9999 FEW020 BKN040
BECMG 2321/2400 10009KT

Related Locations
Nearby:
Farthest:PTO: 12426 mi / 19997 km
Pato Branco, PR, BR

Find:

   beyond  
but within

Other Information
Maps:
NOTAMs:
Links:
Sources:

  
flag of Japan
flag of Okinawa
flag of Okinawa
  

Airport Diagram

Airport diagram for OKA

Larger airport diagram (OBSOLETE) from NGA

Sectional Chart

Flight Planning
at skyvector.com

Satellite Image

Google Maps Satellite view

 

Copyright © 2004-2018 Karl L. Swartz. All rights reserved.
The Great Circle Mapper name and logo are trademarks of the Great Circle Mapper.
All other trademarks mentioned herein belong to their respective owners.
Please see credits for attibutions and further copyright information.

  Follow gcmap on Facebook Follow gcmap on Twitter Follow gcmap on Google+ GCmap on LinkedIn

hCard Microformat

Geo Microformat